GFSCGP_500_spd_057.txt.gz
Wind_Speed
75 72 67 66 68 65 67 67 66 62 64 66 71 76 72 68 68 67 65 66 63 62 51 54 53 51 49 46 47 49 49 43 41 39 40 38 41 40 37 33 27 27 29 30
80 80 73 70 72 69 70 70 70 67 68 65 62 68 81 75 66 63 62 61 59 61 59 55 53 54 54 48 48 50 45 41 40 41 39 39 39 35 35 28 25 26 29 31
62 72 70 74 70 73 73 73 73 72 69 65 59 62 70 77 68 63 60 58 58 56 52 49 50 51 50 48 48 45 42 39 39 42 39 38 39 35 30 25 24 25 28 30
41 43 52 57 67 72 76 76 75 75 72 67 63 66 61 64 68 61 56 50 44 46 47 46 45 41 41 44 44 43 37 38 41 35 37 37 37 36 26 23 23 26 27 30
21 21 32 43 60 72 76 79 78 77 73 71 63 67 52 52 54 53 49 44 42 42 42 44 40 39 40 41 40 34 35 34 33 33 36 35 35 25 24 22 25 25 27 27
16 23 26 27 36 56 70 77 78 78 75 76 66 63 53 48 42 37 36 38 39 39 38 36 35 35 35 36 31 31 29 30 30 32 34 33 26 23 21 22 24 25 27 26
17 20 31 29 29 37 50 70 72 75 77 73 69 64 49 43 39 39 40 39 36 34 36 35 35 35 35 30 28 26 29 31 32 32 28 24 21 20 21 21 22 25 25 26
17 15 19 29 27 23 41 46 57 68 75 74 70 61 48 43 29 24 33 37 35 36 37 34 31 32 28 25 25 27 29 28 29 24 22 19 18 19 18 20 22 22 24 26
10 11 10 16 27 27 26 44 45 53 55 70 70 52 47 47 39 34 13 29 36 37 35 31 24 22 22 24 26 28 27 25 20 20 17 17 18 17 18 19 21 21 23 24
11 10 15 13 14 24 25 24 39 43 48 61 65 55 52 48 43 39 34 32 23 31 31 23 21 24 26 24 25 26 20 17 17 15 16 18 16 17 17 19 20 22 20 21
8 10 13 12 13 21 28 26 32 36 45 54 58 58 53 52 41 40 38 33 28 30 24 27 28 27 25 23 20 16 14 15 14 15 16 16 16 15 17 18 20 21 20 20
11 10 9 15 17 13 19 27 26 32 45 50 56 57 52 51 51 27 38 35 35 28 24 28 27 24 20 21 18 15 14 14 13 14 14 15 14 16 16 18 17 15 17 16
14 11 10 8 16 20 22 21 23 34 37 52 56 50 52 53 50 45 37 37 41 31 25 23 23 20 19 15 14 13 13 12 12 12 14 13 13 14 16 16 15 16 17 18
20 16 12 11 14 19 21 24 24 30 39 46 57 57 52 51 50 45 43 39 42 37 29 25 22 19 18 13 13 12 13 14 14 13 13 11 12 14 15 15 15 16 18 17
17 18 16 13 14 17 18 21 24 28 32 47 47 56 51 41 33 42 42 44 41 39 32 28 23 23 17 14 14 12 12 15 14 13 11 12 11 13 14 15 14 15 16 16
13 5 12 11 13 17 20 18 20 25 28 43 50 57 52 40 36 40 47 48 42 36 33 29 24 23 18 16 15 13 13 13 13 11 10 10 11 13 13 13 13 14 15 12
2 1 4 4 15 18 15 16 25 25 28 40 53 52 54 54 43 39 51 45 40 38 33 30 27 23 20 19 17 15 15 13 11 10 9 9 10 12 11 13 13 13 12 11
9 7 9 11 15 12 12 10 14 19 21 38 51 54 54 56 51 44 49 49 43 39 35 31 28 24 22 19 16 15 14 11 11 9 8 9 9 11 11 12 12 12 9 7
15 18 12 13 11 17 18 12 16 16 21 34 48 54 57 54 57 51 52 48 41 41 39 34 28 26 23 22 20 17 13 10 11 7 8 8 8 10 9 10 12 8 7 7
9 10 14 12 15 14 21 15 10 15 10 26 45 55 55 55 54 61 55 53 47 43 40 35 32 27 25 25 20 18 13 12 10 7 8 6 7 7 8 8 6 5 7 8
10 7 8 12 15 12 22 15 14 14 11 12 33 48 54 55 51 58 57 57 51 46 40 38 33 28 28 26 21 19 14 13 10 8 7 6 7 4 4 4 6 7 7 10
9 8 8 10 13 16 13 13 3 6 13 6 15 29 51 48 50 50 58 56 53 47 42 38 33 32 29 26 23 19 15 14 10 9 7 7 5 1 2 4 6 7 9 9
10 8 9 10 11 10 13 14 10 15 13 17 25 21 43 48 45 46 50 50 51 47 43 37 35 33 28 28 24 18 16 14 11 9 8 8 4 3 1 2 5 7 8 11
9 10 10 11 10 10 13 10 10 17 6 17 26 25 39 49 44 49 52 48 48 46 42 38 38 29 29 29 23 19 16 15 11 10 10 8 6 5 3 5 5 6 8 11
13 13 11 14 15 11 13 10 5 6 11 13 25 33 44 50 45 53 55 52 49 42 42 39 37 31 30 28 24 19 18 16 11 12 12 10 9 8 8 6 4 5 6 8
14 14 13 10 12 16 15 5 4 3 13 20 22 35 40 40 49 55 61 56 50 44 40 42 40 34 32 30 25 21 20 17 13 14 14 12 12 12 8 5 3 4 7 9

GFSCGP_500_spd_060.txt.gz
Wind_Speed
61 61 59 61 66 67 66 67 68 65 66 67 66 59 58 63 71 72 71 68 67 65 62 61 56 56 58 56 53 53 57 56 55 55 46 41 42 42 41 39 39 37 31 29
63 62 67 70 71 68 73 73 70 68 70 69 67 63 56 56 61 74 72 73 73 71 68 64 63 62 60 55 53 58 61 60 57 55 43 41 44 41 41 39 37 37 29 26
68 70 66 68 70 71 72 75 74 73 74 71 69 67 60 56 58 60 73 70 72 71 68 68 65 61 58 58 63 65 63 59 56 52 42 41 42 41 39 36 36 31 28 25
41 40 46 49 54 62 72 70 76 77 76 74 71 70 63 58 57 56 55 66 72 70 67 64 57 55 57 63 64 62 58 52 47 41 40 38 41 38 35 37 32 30 26 26
20 20 26 32 34 40 54 62 70 70 79 77 73 73 67 64 59 54 55 53 62 69 61 58 55 56 57 56 56 55 45 37 36 37 32 36 36 34 35 33 29 28 26 26
17 25 26 27 27 21 29 35 43 42 49 64 74 73 66 61 57 51 47 45 47 56 61 60 55 52 49 50 50 44 37 33 30 28 31 33 33 34 33 30 27 25 26 27
23 18 25 21 26 25 21 26 31 41 47 52 70 62 65 59 58 52 46 39 40 45 48 50 48 45 46 44 40 36 28 24 24 29 32 33 31 30 27 25 24 24 25 26
22 17 15 11 15 23 19 21 32 37 42 49 46 43 64 59 48 47 46 39 38 39 42 45 44 43 41 34 31 26 24 25 27 29 30 27 27 25 22 22 23 23 24 25
20 18 16 16 19 26 20 24 25 32 31 42 37 53 64 60 48 30 31 42 37 39 40 40 37 37 30 30 28 26 26 29 26 27 26 25 23 19 21 22 22 23 25 24
15 18 16 17 20 12 29 24 24 31 33 27 38 38 59 58 47 35 27 30 37 37 40 36 34 30 27 27 26 27 28 25 26 26 23 22 18 19 21 21 21 23 23 25
12 15 11 19 15 12 12 23 21 24 34 21 28 30 31 50 58 51 44 31 31 35 34 32 31 28 29 27 27 25 24 24 24 22 21 18 18 19 20 20 22 21 23 21
17 13 14 16 15 9 17 16 22 28 28 33 25 24 35 35 48 50 47 45 36 33 24 30 29 31 29 28 25 24 24 23 21 19 17 18 18 18 18 21 20 21 20 19
17 18 14 9 12 15 12 16 21 20 31 35 32 24 26 33 51 40 47 47 44 35 28 34 34 33 31 26 25 23 23 21 18 17 16 16 17 17 19 18 20 21 21 20
16 14 16 14 18 15 16 17 16 21 28 28 35 37 22 27 41 50 40 49 44 37 33 33 33 33 29 24 23 20 19 18 19 18 14 14 17 17 17 18 19 19 19 20
13 12 13 15 15 20 17 18 20 22 22 28 32 34 41 45 46 53 43 45 46 40 33 31 33 31 27 24 18 16 18 20 21 19 15 15 16 16 16 17 18 17 18 18
10 4 5 11 14 16 14 16 19 19 20 23 24 39 49 44 46 43 53 43 46 50 38 32 32 28 24 22 16 17 19 19 20 18 15 15 14 15 15 16 16 16 17 17
8 7 5 6 12 14 11 15 19 19 20 24 28 31 43 42 44 49 48 51 48 51 43 42 33 27 26 22 16 18 17 17 18 16 15 14 14 13 14 15 16 16 17 11
19 16 19 16 13 13 14 10 13 17 21 24 26 34 42 49 46 48 50 51 53 46 49 42 34 29 29 23 16 16 16 18 17 15 14 13 12 12 14 14 15 14 10 10
16 12 13 14 10 10 12 7 6 11 13 24 26 35 43 56 47 49 55 56 50 51 48 41 37 33 29 23 17 17 18 19 17 15 13 12 11 12 12 12 14 12 10 10
11 10 10 9 9 12 11 15 17 15 10 14 24 35 47 57 52 47 61 56 54 50 45 44 39 34 31 24 17 19 20 19 16 15 12 12 11 10 11 12 10 8 8 10
16 12 12 12 11 12 15 12 14 5 9 9 15 31 48 60 55 51 57 56 53 51 47 43 38 34 29 23 20 20 20 19 15 14 11 11 9 9 11 5 5 6 6 7
15 14 12 13 12 12 18 17 14 12 9 10 9 26 44 53 63 51 57 56 55 52 47 42 38 33 28 24 23 21 20 19 16 13 11 10 8 8 9 6 4 6 7 7
13 16 19 19 16 19 19 17 16 16 12 11 9 17 37 52 66 59 58 60 57 51 45 42 37 32 30 25 24 22 21 19 17 13 11 9 8 9 7 3 1 5 7 8
19 19 23 23 26 23 20 19 17 14 14 10 21 22 36 51 56 63 61 60 57 49 44 41 36 33 30 27 25 23 22 18 16 12 11 9 9 9 5 3 2 5 8 9
19 20 22 26 22 26 23 17 7 7 10 14 27 28 35 48 50 59 64 60 57 52 45 42 37 34 31 27 25 23 21 19 17 12 12 10 9 8 6 4 2 5 8 10
18 20 21 27 24 26 28 17 9 6 14 14 24 37 39 45 49 54 66 63 58 54 46 42 39 38 32 28 27 26 22 20 17 14 13 11 10 9 7 3 1 4 7 11

GFSCGP_500_spd_063.txt.gz
Wind_Speed
49 51 53 54 57 60 64 65 65 61 58 42 51 60 60 56 61 62 68 71 68 57 58 61 70 62 60 58 57 54 53 51 49 50 55 56 58 56 51 49 45 41 37 33
50 53 56 59 59 60 63 67 68 68 66 50 62 64 65 61 62 60 63 66 73 71 60 63 67 64 65 59 57 56 54 53 51 53 57 58 61 59 56 47 41 41 33 33
49 53 55 57 61 64 64 64 65 67 69 64 71 74 67 66 66 63 59 62 63 72 72 69 70 67 65 61 58 59 56 56 55 55 57 61 61 56 44 41 38 38 30 34
53 51 46 53 57 58 65 63 65 69 70 73 70 71 74 67 66 65 60 60 61 62 77 76 71 70 67 63 63 61 56 55 56 57 59 55 53 40 35 35 36 34 31 34
41 33 33 30 35 30 43 44 46 61 66 72 67 68 79 69 68 64 63 58 58 59 51 71 74 70 69 66 63 58 54 54 57 56 53 45 36 32 30 32 33 30 34 32
27 21 26 26 25 26 29 34 33 39 41 53 76 71 81 64 44 54 43 58 58 57 55 56 63 70 67 68 61 58 53 55 57 51 43 37 30 29 29 32 31 32 31 29
23 22 19 26 21 19 23 25 28 32 40 52 52 55 68 54 45 41 50 60 58 54 50 50 51 53 67 66 56 51 51 56 49 39 35 28 27 28 30 30 30 30 27 28
21 20 22 28 21 19 21 22 26 29 30 33 42 54 49 68 46 29 55 57 54 50 44 44 49 50 54 61 53 51 54 48 36 31 28 26 26 27 28 28 27 27 27 26
23 23 21 20 21 21 18 22 21 26 32 34 36 37 37 30 47 44 35 45 53 48 44 42 44 46 45 49 52 53 47 34 29 29 26 25 26 27 27 26 27 25 27 24
20 21 21 18 21 21 20 14 23 26 34 29 23 32 29 36 35 38 36 45 48 47 42 42 41 38 41 42 43 40 33 30 31 28 25 25 24 27 25 25 24 25 24 25
20 21 11 17 20 15 17 16 23 23 16 26 22 27 16 29 43 34 26 47 46 41 43 43 37 34 34 34 34 31 29 30 28 25 25 24 27 26 23 24 24 23 24 25
19 18 17 18 15 21 18 15 18 26 20 25 24 23 36 31 31 41 39 50 42 39 45 42 36 34 32 32 30 28 29 26 25 24 24 25 26 23 23 23 22 21 24 25
16 15 18 14 16 26 22 13 20 17 18 29 31 27 26 29 38 48 49 46 42 43 36 32 37 34 35 33 30 30 27 26 24 22 24 25 24 23 22 20 20 22 23 23
20 18 18 15 17 22 19 10 10 19 19 23 41 25 24 35 30 46 58 53 45 41 28 27 34 36 35 33 32 28 26 24 23 24 24 24 21 20 19 17 20 21 21 23
13 14 13 14 13 14 15 17 16 17 21 26 35 36 27 34 42 28 52 60 54 53 37 31 30 35 35 32 28 27 24 23 22 21 22 21 18 18 16 18 19 19 21 22
20 14 14 12 12 16 18 19 19 23 26 24 37 42 28 25 36 44 54 57 57 52 41 34 34 36 35 30 28 25 23 21 19 19 21 20 18 15 16 18 18 19 20 21
20 22 19 18 19 20 14 18 23 24 21 31 42 40 40 27 25 39 55 43 49 49 44 39 40 37 33 29 27 24 22 18 17 18 19 19 15 15 17 17 18 18 19 18
21 21 15 16 10 10 13 7 9 19 22 27 33 48 50 59 43 46 55 52 44 48 46 44 40 35 32 28 26 21 19 16 15 16 17 15 14 16 16 17 16 17 16 14
20 20 14 14 7 7 13 14 11 13 15 25 21 23 30 64 53 47 54 55 41 53 52 43 37 34 30 27 26 20 16 15 15 16 16 15 15 16 15 15 15 16 16 15
21 20 14 15 13 10 12 16 15 17 6 17 19 20 28 40 49 46 52 60 50 45 53 47 36 32 28 28 26 20 17 16 16 15 15 15 15 14 14 14 14 13 12 13
16 17 18 18 16 18 18 19 23 15 14 7 13 19 25 35 50 51 53 50 53 49 48 47 40 34 30 29 25 19 18 16 15 15 16 14 12 12 13 13 12 13 12 12
15 16 20 23 16 14 22 23 22 17 16 12 15 15 23 39 54 50 47 51 54 56 48 49 44 37 31 29 24 20 18 15 16 15 15 12 11 11 12 11 12 12 8 7
15 18 20 24 25 27 27 24 19 20 14 11 13 16 23 36 53 46 49 55 57 53 53 48 44 38 32 28 26 21 17 17 16 15 14 11 11 10 10 10 10 6 6 6
17 20 21 24 26 29 32 27 19 12 13 13 16 15 23 37 51 47 47 56 55 51 51 48 41 38 32 29 25 20 19 16 14 15 12 12 10 9 9 8 6 5 7 9
17 18 21 24 27 29 29 32 15 9 10 14 18 20 28 42 51 47 54 56 53 51 48 45 41 35 31 28 24 21 18 15 15 16 12 12 9 7 7 6 5 6 9 10
19 19 22 24 28 29 28 28 5 5 9 13 17 27 35 45 53 45 59 55 51 49 47 43 39 36 31 26 23 21 19 18 17 16 13 12 8 7 7 6 5 6 9 9

GFSCGP_500_spd_069.txt.gz
Wind_Speed
36 38 40 40 41 45 48 49 51 49 51 56 57 56 49 51 54 54 53 51 53 53 58 62 61 57 51 53 56 54 53 50 49 49 47 46 42 40 39 37 38 38 41 44
36 38 40 44 45 47 48 50 50 52 54 55 55 57 54 53 53 53 56 58 54 52 51 55 64 64 64 60 61 61 57 51 54 54 50 46 43 40 39 37 38 38 40 41
35 36 39 41 44 49 51 51 53 56 56 58 62 63 56 52 56 56 56 55 54 56 54 52 54 58 61 64 65 63 63 56 54 54 50 44 44 39 41 38 38 37 39 38
34 36 39 43 44 46 50 52 55 58 59 62 57 67 64 58 59 60 58 59 58 55 55 51 51 53 60 58 58 62 63 60 46 47 50 47 45 39 42 39 37 36 39 37
31 34 38 40 41 40 45 43 43 47 53 60 63 66 65 65 64 63 62 62 60 55 56 55 47 49 56 61 59 49 55 60 41 44 50 51 48 43 42 44 37 38 40 34
29 28 32 36 37 37 40 37 39 41 43 55 54 45 67 68 69 69 64 64 63 58 55 57 54 45 50 54 54 51 52 53 38 37 45 47 49 46 45 44 36 38 39 31
24 28 33 40 38 29 27 28 27 28 29 36 31 31 49 64 69 73 71 68 63 62 55 58 59 54 49 48 49 49 48 50 40 37 42 52 48 43 41 40 34 39 33 30
23 25 28 32 31 29 17 21 22 29 27 32 34 39 41 34 39 49 58 61 59 51 47 52 64 60 53 51 50 48 48 44 43 39 35 42 46 41 41 33 36 35 29 29
23 26 31 26 29 28 25 29 25 32 33 40 36 32 24 33 37 38 41 51 53 46 44 40 44 50 63 53 49 48 44 42 41 37 31 33 39 39 38 31 36 27 29 27
27 26 26 27 21 20 21 20 26 26 34 36 33 23 30 31 29 27 32 45 55 52 50 43 43 46 47 50 46 41 40 38 39 37 31 31 37 37 33 33 27 27 27 25
25 26 24 25 19 23 15 20 24 27 25 33 29 29 29 30 27 25 32 51 54 48 48 45 49 47 50 42 41 35 40 38 36 35 33 33 34 34 29 29 25 26 23 23
21 22 21 19 19 23 23 16 25 32 30 25 29 33 25 30 38 29 35 50 51 43 46 40 53 52 52 40 35 36 36 36 35 33 32 32 33 27 29 26 25 22 22 20
21 22 20 16 16 19 23 24 20 28 33 26 33 29 23 34 38 31 30 51 53 36 43 40 46 54 42 37 33 35 37 36 31 29 26 27 29 28 25 23 22 21 20 18
17 19 19 22 18 17 19 24 20 19 23 27 31 33 32 35 32 26 21 49 44 34 35 41 42 44 42 35 35 36 38 33 31 30 26 28 27 25 21 23 21 18 18 18
19 17 19 24 26 25 21 16 16 26 23 24 23 26 34 33 30 35 8 47 33 47 45 35 40 33 35 37 35 38 37 33 31 29 26 24 24 22 22 20 16 16 18 16
19 17 19 20 25 26 19 13 15 20 21 34 32 33 27 32 25 17 11 32 38 31 37 34 34 38 38 37 38 36 34 34 31 29 25 23 22 21 19 16 15 16 15 15
19 19 21 19 23 23 13 18 17 14 14 24 28 35 32 30 30 23 16 10 31 42 42 36 40 40 47 34 32 28 34 32 29 27 23 23 21 18 16 15 15 14 15 13
15 21 21 19 24 21 19 24 19 16 19 18 17 21 20 24 32 28 20 6 11 29 28 35 45 44 37 31 29 20 31 28 27 25 24 20 18 17 17 15 14 14 12 13
15 16 23 15 19 21 21 18 21 24 20 25 27 26 19 17 20 21 28 22 8 37 39 40 40 43 45 35 33 31 34 30 28 24 21 19 17 16 15 14 12 11 11 12
14 15 13 18 21 18 21 18 17 17 21 30 28 25 20 13 14 18 27 19 20 32 44 43 44 40 39 35 29 35 32 29 25 24 21 17 17 15 14 12 10 10 11 10
16 14 15 17 20 18 21 17 24 26 34 40 34 28 24 15 14 19 21 26 27 20 46 45 43 38 39 38 24 32 27 26 24 22 18 18 16 14 12 9 8 10 10 9
16 18 16 20 22 23 23 23 29 32 33 37 35 31 26 24 16 15 22 30 36 31 51 43 41 38 39 34 22 26 27 24 23 19 19 17 14 11 8 8 8 8 8 7
15 18 18 20 21 26 27 32 31 34 39 25 20 31 33 28 24 21 26 31 37 44 54 43 41 38 37 31 26 26 26 24 21 20 17 14 12 8 7 6 6 6 6 7
15 18 20 24 23 27 30 28 36 43 49 32 24 24 28 26 24 30 34 42 37 46 56 45 45 42 39 41 36 33 25 23 20 18 15 13 9 7 6 4 5 5 6 9
22 21 21 16 25 25 32 30 39 45 49 33 27 21 19 25 26 36 47 45 34 45 49 46 46 42 35 44 36 31 27 22 20 17 14 11 8 7 4 3 4 4 9 12
18 17 20 26 24 29 32 36 40 45 27 26 23 16 18 24 25 49 53 43 45 48 45 51 45 44 41 36 35 30 26 23 20 16 13 11 8 5 3 2 2 6 10 14

GFSCGP_500_spd_072.txt.gz
Wind_Speed
31 33 34 37 41 42 42 44 46 47 47 49 50 50 47 47 48 52 53 52 55 56 56 60 58 62 60 59 55 54 52 49 52 53 49 41 40 43 40 37 34 32 31 31
32 32 35 37 39 42 44 45 48 48 48 53 53 51 48 50 51 50 51 52 53 53 55 58 61 62 63 62 60 52 52 56 57 56 52 45 46 44 44 39 37 36 32 32
27 29 33 36 39 41 43 46 48 50 51 53 56 53 51 51 55 56 56 56 54 53 53 54 57 63 67 68 65 60 55 54 52 53 52 52 51 43 40 40 41 38 32 33
27 29 32 36 39 41 43 45 49 51 53 55 54 59 55 53 57 59 59 60 60 57 56 55 53 58 63 68 69 67 64 60 58 53 50 48 47 47 39 43 43 37 31 33
27 28 30 33 35 38 43 46 49 51 54 55 56 61 55 56 59 59 60 63 62 61 62 62 60 56 54 60 66 68 67 62 59 53 48 49 40 37 39 42 40 38 32 34
23 25 28 30 32 35 39 43 47 49 51 53 52 52 56 56 58 63 66 63 65 63 64 63 61 60 54 51 56 60 62 60 55 50 33 36 38 38 43 43 42 41 36 36
16 13 15 21 28 31 33 39 44 42 40 43 34 51 57 43 53 64 69 70 69 67 66 63 62 59 58 53 50 52 55 54 49 46 37 34 29 37 45 45 44 42 39 37
11 8 14 23 26 31 36 27 32 36 30 31 24 43 32 33 42 47 55 65 71 67 70 65 63 60 58 57 55 50 50 48 45 44 36 31 35 38 37 42 41 31 35 38
14 14 14 21 23 30 31 34 27 37 39 38 33 30 31 31 34 38 42 46 54 63 60 68 63 61 58 58 53 55 49 48 47 40 34 35 36 37 39 42 37 26 36 34
19 21 16 18 21 28 31 30 26 27 34 41 36 35 37 31 34 37 37 44 48 53 54 62 62 64 61 57 53 48 51 47 39 39 36 31 31 36 38 39 37 29 33 33
21 22 16 19 22 21 22 24 23 28 29 35 37 22 22 28 34 31 34 35 40 43 47 53 69 67 62 54 52 47 47 43 34 35 34 34 33 37 40 31 32 33 31 36
16 20 16 16 21 20 22 20 24 28 29 32 38 25 29 30 30 32 34 35 44 34 49 61 58 60 52 57 52 46 36 40 41 37 37 37 37 38 38 34 31 31 35 34
17 16 16 13 18 19 19 20 24 29 32 28 31 33 36 32 36 36 38 44 41 31 57 54 46 54 57 57 52 47 40 38 38 35 38 40 37 35 35 31 31 33 30 27
19 16 17 15 19 22 16 17 24 31 33 31 31 31 27 28 30 30 35 39 25 36 61 34 44 52 55 43 52 36 36 38 38 37 38 35 30 32 34 31 30 27 26 25
17 14 16 15 17 19 24 23 14 21 24 29 29 38 39 35 32 34 31 29 13 35 48 42 38 51 45 36 38 44 42 41 39 36 34 29 30 33 32 29 26 27 25 22
20 14 16 11 21 20 22 21 20 16 19 21 24 24 26 34 34 30 25 14 19 53 37 44 50 51 48 45 46 43 41 38 34 32 28 32 32 29 27 26 27 24 23 20
24 18 19 13 15 18 20 20 25 25 22 19 20 19 16 19 17 17 21 20 26 42 35 43 54 50 53 48 52 45 36 36 32 30 33 32 29 29 29 27 24 23 18 15
19 18 25 26 29 16 20 18 22 17 19 22 19 23 27 24 16 9 19 21 15 32 39 44 48 47 51 50 53 51 41 40 34 35 33 31 31 29 26 25 21 16 13 11
16 19 18 17 14 13 18 19 21 16 18 16 28 32 30 17 3 8 18 14 6 22 36 46 48 47 44 50 44 44 43 37 35 35 32 32 29 26 24 20 16 13 12 10
18 17 19 20 19 14 17 19 20 20 22 27 26 36 26 17 3 10 13 19 16 21 39 46 42 37 39 46 43 30 49 40 37 33 32 30 28 25 22 19 15 13 11 12
17 16 18 21 24 16 20 22 25 25 29 29 29 35 35 12 9 12 20 20 21 21 34 42 38 38 31 29 33 32 49 44 37 34 32 29 25 23 20 16 13 11 12 13
16 18 19 21 22 21 23 24 25 31 31 35 36 40 38 20 11 11 24 27 28 35 34 36 37 36 35 29 34 40 40 44 37 34 29 26 25 21 17 13 12 11 11 11
14 17 21 22 20 27 27 28 30 33 38 35 43 42 41 21 17 19 27 34 30 30 34 35 34 36 29 25 26 42 43 39 34 31 29 27 22 19 16 14 11 10 9 10
16 23 24 23 20 25 27 28 29 32 38 41 44 50 26 12 20 26 27 39 38 36 34 32 33 36 27 29 32 34 39 36 31 28 27 23 20 17 14 12 9 8 8 9
22 23 22 20 24 26 24 26 31 39 46 43 37 32 23 16 25 31 34 34 44 38 31 39 41 32 32 29 50 32 36 35 31 29 24 23 19 14 11 9 7 6 6 8
21 18 17 20 24 28 28 35 38 42 23 25 27 21 22 19 32 33 40 35 51 44 39 42 38 33 36 31 31 39 36 35 31 26 24 22 16 12 9 6 4 4 4 8

GFSCGP_500_spd_075.txt.gz
Wind_Speed
31 30 33 36 38 40 42 44 45 47 48 48 49 47 47 47 48 51 53 54 57 57 60 64 64 61 61 62 62 58 54 52 50 46 43 41 40 35 38 36 37 40 36 31
30 29 32 35 37 38 40 42 44 46 48 48 50 47 48 50 49 50 53 55 55 56 57 58 63 66 65 68 66 62 58 59 54 54 51 50 42 41 42 40 41 43 39 35
31 32 34 36 38 40 41 43 45 48 49 51 53 48 48 50 52 53 54 56 56 56 57 57 58 60 68 71 72 70 66 65 56 52 53 51 50 50 46 43 42 44 41 35
26 29 32 34 35 36 37 41 43 45 47 50 52 54 48 51 55 57 58 60 61 60 61 60 59 59 60 65 70 69 64 62 58 51 49 51 50 48 44 44 42 43 39 39
26 26 27 29 32 34 36 37 40 44 47 51 51 56 50 53 55 58 61 63 64 64 63 62 62 61 58 61 63 64 65 65 61 55 51 51 52 47 48 42 44 42 41 41
23 25 27 27 28 32 34 34 39 42 46 49 51 54 54 57 58 60 62 65 67 66 66 65 64 63 62 60 61 61 63 63 64 62 55 50 48 46 43 39 44 46 45 42
19 22 22 23 26 26 27 28 34 37 39 40 44 51 51 57 55 61 64 66 67 67 67 68 67 66 64 63 62 61 62 61 60 58 58 53 47 38 38 35 37 42 44 44
15 13 14 19 24 25 23 24 27 37 39 43 36 48 47 50 55 50 58 64 67 68 67 68 69 68 68 65 62 63 61 61 58 55 57 56 44 37 43 40 39 40 46 49
13 12 13 20 22 24 23 24 27 32 38 44 45 43 45 43 42 46 48 53 61 67 68 68 69 70 67 66 64 60 59 60 55 54 55 51 41 45 41 42 41 41 42 41
17 18 13 18 22 22 24 25 25 28 37 39 38 38 36 32 35 42 46 43 42 48 57 68 70 68 71 66 63 63 57 54 56 52 49 50 42 41 42 42 44 42 42 40
18 20 11 16 22 21 24 24 26 26 32 36 37 35 29 29 29 25 26 35 38 41 47 54 61 65 69 69 68 64 60 55 53 53 48 46 41 40 41 44 43 42 38 33
19 21 11 14 18 20 19 20 25 30 31 35 38 27 29 27 30 31 28 29 34 40 44 49 48 53 61 65 67 66 62 55 52 51 51 44 40 42 43 45 42 38 35 32
21 19 16 17 19 21 18 21 24 28 32 32 33 29 26 26 29 32 29 33 34 34 35 38 39 39 51 59 61 66 64 56 53 53 49 43 42 45 46 41 39 33 35 34
24 20 20 18 18 18 13 17 23 29 28 27 26 24 20 25 31 34 32 31 34 32 29 36 39 37 49 56 68 67 62 58 51 50 49 49 43 42 41 37 34 35 35 36
27 21 21 19 18 22 18 18 21 28 27 32 22 23 23 26 23 23 32 32 35 31 17 22 27 36 45 50 63 67 58 53 49 50 48 48 46 42 38 33 34 35 34 30
28 23 22 18 21 24 15 18 24 23 28 28 25 21 26 23 25 20 21 25 25 36 18 19 24 39 44 50 48 51 52 52 54 49 46 45 38 34 32 34 35 32 28 30
26 25 25 19 22 29 22 27 25 23 25 22 19 20 19 27 28 26 29 20 19 31 22 24 27 11 17 22 50 52 56 47 46 43 45 41 36 33 33 32 32 29 30 30
21 24 21 19 21 21 25 22 24 22 22 21 19 19 25 32 18 17 24 11 15 25 21 34 33 27 32 42 49 51 47 44 41 40 43 40 35 33 34 31 30 31 27 28
20 18 17 25 23 20 17 21 23 24 15 25 26 25 22 28 24 18 17 7 11 15 13 31 37 32 33 42 41 40 43 41 36 41 42 41 37 31 31 31 32 28 27 26
21 19 22 26 29 25 19 24 27 27 23 23 27 30 24 26 28 15 22 10 9 14 14 40 33 28 29 35 41 42 42 43 44 46 42 42 40 36 31 30 27 27 26 24
21 23 23 25 28 23 22 25 27 30 30 28 32 27 29 27 32 27 25 12 12 14 15 22 30 19 32 35 43 48 46 51 51 43 46 36 32 32 30 29 29 27 22 20
18 22 23 27 29 26 23 25 29 32 30 34 33 31 35 32 32 29 25 16 17 16 13 24 31 29 21 26 30 33 41 49 55 43 40 33 30 29 29 29 25 20 19 18
24 24 25 23 22 26 27 27 31 31 29 30 38 41 42 38 28 28 22 19 18 14 18 26 33 27 23 29 29 34 49 40 56 38 39 34 33 30 28 24 20 19 17 15
17 20 28 27 20 25 28 32 30 28 34 40 40 43 29 17 27 30 23 23 20 21 21 23 24 21 24 23 26 39 36 46 53 45 40 36 32 29 24 21 20 17 14 13
17 19 20 20 20 24 28 33 35 35 40 43 37 35 24 17 27 33 29 25 22 24 27 24 23 19 19 19 17 37 46 48 48 43 38 33 30 26 23 20 16 14 13 13
13 12 9 10 18 24 26 30 32 38 37 27 29 34 26 17 27 29 34 26 21 23 26 21 22 22 19 20 33 44 46 45 42 38 34 31 27 23 21 18 14 12 11 11